DW2505 Weather Reports


time (UTC)temp
C
wind
direction
speed
KPH
gust
KPH
rain 1hr
cm
rain 24hr
cm
rain mn
cm
humidity
%
barometer
mb
20260505121810 2 181 1.6 6.4 0.00 0.28 0.00 97 1005.0
20260505120910 2 181 0.0 3.2 0.00 0.28 0.00 97 1005.0
20260505120010 2 181 0.0 3.2 0.00 0.28 0.00 97 1005.1
20260505115110 2 181 0.0 1.6 0.00 0.28 0.00 97 1005.2
20260505114210 2 181 1.6 4.8 0.00 0.28 0.00 97 1005.1
20260505113310 2 174 1.6 4.8 0.00 0.28 0.00 97 1005.3
20260505112410 2 181 1.6 3.2 0.00 0.28 0.00 97 1005.4
20260505110612 2 184 0.0 4.8 0.00 0.28 0.00 97 1005.4
20260505102110 1 181 1.6 4.8 0.00 0.28 0.00 98 1005.3
20260505101211 1 181 1.6 4.8 0.00 0.28 0.00 98 1005.4
20260505100310 1 0 0.0 0.0 0.00 0.28 0.00 98 1005.4
20260505095410 1 0 0.0 0.0 0.00 0.28 0.00 98 1005.3
20260505094511 2 185 0.0 3.2 0.00 0.28 0.00 97 1005.2
20260505093611 2 181 1.6 4.8 0.00 0.28 0.00 97 1005.2
20260505092710 2 181 1.6 4.8 0.00 0.28 0.00 97 1005.5
20260505091810 2 0 0.0 0.0 0.00 0.28 0.00 97 1005.4
20260505090010 2 181 0.0 3.2 0.00 0.28 0.00 97 1005.4
20260505085110 2 0 0.0 0.0 0.00 0.28 0.00 97 1005.5
20260505084211 2 0 0.0 0.0 0.00 0.28 0.00 97 1005.7
20260505083311 2 225 0.0 1.6 0.00 0.28 0.00 97 1005.9
20260505082410 2 225 0.0 1.6 0.00 0.28 0.00 97 1006.0
20260505081510 2 225 0.0 1.6 0.00 0.28 0.00 97 1006.4
20260505080610 2 225 0.0 1.6 0.00 0.28 0.00 97 1006.4
20260505074810 2 222 0.0 3.2 0.00 0.28 0.00 97 1006.4
20260505073910 2 225 0.0 4.8 0.00 0.28 0.00 97 1006.4
20260505073010 3 225 1.6 1.6 0.00 0.28 0.00 99 1006.6
20260505072110 2 225 0.0 1.6 0.00 0.28 0.00 99 1006.7
20260505071210 2 0 0.0 0.0 0.00 0.28 0.00 99 1006.8
20260505065410 2 0 0.0 0.0 0.00 0.28 0.00 99 1006.4
20260505064510 2 0 0.0 0.0 0.00 0.28 0.00 97 1006.7
20260505063610 3 181 0.0 3.2 0.00 0.28 0.00 99 1006.6
20260505061810 2 181 0.0 1.6 0.00 0.28 0.00 97 1006.7
20260505060910 2 181 0.0 1.6 0.03 0.28 0.00 97 1006.8
20260505055110 2 181 0.0 1.6 0.03 0.28 0.28 99 1006.8
20260505054210 2 225 0.0 1.6 0.03 0.28 0.28 97 1007.0
20260505053310 2 225 0.0 4.8 0.03 0.28 0.28 97 1007.1
20260505052410 2 225 1.6 1.6 0.03 0.28 0.28 97 1006.9
20260505051510 3 193 0.0 1.6 0.00 0.23 0.23 99 1007.1
20260505041210 3 225 0.0 1.6 0.00 0.23 0.23 99 1006.8
20260505035410 3 0 0.0 0.0 0.00 0.23 0.23 99 1006.9
20260505034510 3 0 0.0 0.0 0.00 0.23 0.23 99 1006.6
20260505033610 3 208 0.0 3.2 0.00 0.23 0.23 99 1006.4
20260505032710 3 216 0.0 1.6 0.00 0.23 0.23 99 1006.5
20260505031810 3 239 0.0 4.8 0.00 0.23 0.23 99 1006.7
20260505030910 3 225 1.6 3.2 0.00 0.23 0.23 99 1007.2
20260505030012 3 225 0.0 3.2 0.00 0.23 0.23 99 1007.0
20260505025110 3 225 0.0 3.2 0.00 0.23 0.23 99 1006.7
20260505024210 3 225 0.0 1.6 0.00 0.23 0.23 99 1006.7
20260505021510 3 0 0.0 0.0 0.00 0.23 0.23 99 1006.8
20260505020610 3 0 0.0 0.0 0.00 0.23 0.23 99 1006.7
20260505015710 3 225 0.0 1.6 0.03 0.23 0.23 99 1006.8
20260505013010 3 225 1.6 1.6 0.23 0.23 0.23 99 1006.8
20260505012109 3 225 0.0 4.8 0.23 0.23 0.23 96 1006.8
20260505011210 4 225 0.0 4.8 0.23 0.23 0.23 95 1007.1
20260505005409 4 175 1.6 8.0 0.15 0.15 0.13 87 1006.8
20260505004510 5 225 1.6 4.8 0.08 0.08 0.10 81 1007.2
20260505003610 6 201 1.6 9.7 0.00 0.00 0.00 67 1007.0
20260505002710 7 206 3.2 9.7 0.00 0.00 0.00 58 1006.3
20260505001810 7 306 6.4 11.3 0.00 0.00 0.00 56 1006.0
20260505000910 9 229 4.8 8.0 0.00 0.00 0.00 43 1005.6
20260505000009 11 230 4.8 9.7 0.00 0.00 0.00 34 1005.3
20260504235110 11 243 3.2 9.7 0.00 0.00 0.00 33 1005.4
20260504234210 12 204 1.6 6.4 0.00 0.00 0.00 30 1005.1
20260504233309 12 192 1.6 8.0 0.00 0.00 0.00 30 1005.5
20260504232409 12 228 1.6 8.0 0.00 0.00 0.00 29 1005.4
20260504230610 13 208 1.6 4.8 0.00 0.00 0.00 29 1005.6
20260504225709 13 215 3.2 6.4 0.00 0.00 0.00 31 1005.6
20260504224810 12 233 3.2 9.7 0.00 0.00 0.00 26 1005.5
20260504222110 12 235 1.6 9.7 0.00 0.00 0.00 31 1005.7
20260504221210 12 210 1.6 9.7 0.00 0.00 0.00 31 1005.7
20260504220311 13 206 3.2 8.0 0.00 0.00 0.00 25 1005.8
20260504215410 13 181 1.6 11.3 0.00 0.00 0.00 24 1005.8
20260504214510 13 186 6.4 11.3 0.00 0.00 0.00 23 1005.7
20260504213610 15 186 3.2 9.7 0.00 0.00 0.00 21 1005.2
20260504211810 13 201 4.8 8.0 0.00 0.00 0.00 23 1005.9
20260504210910 13 182 3.2 8.0 0.00 0.00 0.00 24 1005.7
20260504205110 13 222 3.2 14.5 0.00 0.00 0.00 20 1005.6
20260504204209 14 224 3.2 11.3 0.00 0.00 0.00 19 1005.4
20260504203309 15 213 4.8 11.3 0.00 0.00 0.00 18 1005.6
20260504202409 16 217 4.8 8.0 0.00 0.00 0.00 19 1005.6
20260504200609 15 227 3.2 6.4 0.00 0.00 0.00 21 1005.6
20260504194809 14 224 1.6 8.0 0.00 0.00 0.00 22 1006.1
20260504193910 13 179 1.6 11.3 0.00 0.00 0.00 28 1006.3
20260504192110 11 232 4.8 24.1 0.00 0.00 0.00 25 1006.7
20260504191210 13 218 4.8 11.3 0.00 0.00 0.00 22 1006.2
20260504190309 13 222 4.8 12.9 0.00 0.00 0.00 22 1006.2
20260504185410 13 225 11.3 17.7 0.00 0.00 0.00 22 1006.2
20260504183609 13 215 4.8 12.9 0.00 0.00 0.00 20 1006.1
20260504182709 14 235 1.6 14.5 0.00 0.00 0.00 21 1006.4
20260504181810 12 222 4.8 17.7 0.00 0.00 0.00 18 1006.5
20260504180910 16 193 1.6 9.7 0.00 0.00 0.00 18 1006.5
20260504180010 15 231 1.6 16.1 0.00 0.00 0.00 19 1006.6
20260504175110 14 229 8.0 17.7 0.00 0.00 0.00 19 1006.8
20260504174209 13 225 6.4 12.9 0.00 0.00 0.00 20 1006.9
20260504173309 15 208 1.6 14.5 0.00 0.00 0.00 20 1006.9
20260504172410 14 229 4.8 17.7 0.00 0.00 0.00 21 1007.1
20260504171509 13 241 4.8 20.9 0.00 0.00 0.00 21 1007.4
20260504170610 14 218 3.2 19.3 0.00 0.00 0.00 21 1007.2
20260504150910 8 211 1.6 17.7 0.00 0.00 0.00 41 1008.1
20260504140610 7 249 0.0 4.8 0.00 0.00 0.00 39 1008.1
20260504130309 7 225 4.8 11.3 0.00 0.00 0.00 36 1007.8